Location: Nashville
(36.1660°N, 86.7840°W)
Time: 00:04:48
(UTC-05:00)

Vanguard 2 - Pass Details

Date: 02 July 2022
Orbit: 552 x 2934 km, 32.9° (Epoch: 10 August)

Event Time Altitude Azimuth Distance (km) Brightness Sun altitude
Rises 21:32:09 0° 269° (W) 4,425 12.2 -14.4°
Reaches altitude 10° 21:35:46 10° 267° (W) 3,069 11.2 -15.0°
Maximum altitude 21:42:38 61° 188° (S) 912 7.7 -16.0°
Enters shadow 21:45:15 26° 117° (ESE) 1,358 8.2 -16.3°
